星链-4329 (STARLINK-4329 )

导读

STARLINK-4329是美国SpaceX公司于2022年7月11日发射的星链(Starlink)低轨互联网卫星,隶属于星链一期LEO-2星座(壳层4),运行在约540公里高度、倾角53.2度的近地轨道。它旨在为全球偏远地区提供高速低延迟宽带服务,卫星采用平板设计与离子推进技术,依托猎鹰9可重复火箭降低发射成本,是星链计划近万颗卫星组网中的一员,助力全球卫星互联网覆盖。

基本信息
目录编号:
53087
目录名称:
STARLINK-4329
国际标识:
2022-077AW
轨道中心:
EARTH
卫星名称:
星链-4329
卫星全名:
星链-4329 (STARLINK-4329 )
卫星状态:
已陨落 最后检测时间 2025-09-01
发射日期:
2022-07-11 UTC
国别 :
美国 (US)
星等 :
--
该卫星已列入 空间交会检测服务 Space Conjunction Data Service (SCDS) ,当前飞行风险评估等级: 无高风险
轨道信息
数据来源 国际轨道数据
星历时间: 2025-09-01T11:50:59+0800
轨道信息已过期376天
半长轴: 6530.909km
偏心率: 0.0009239
轨道倾角: 97.639°
近地点辐角 258.105°
升交点赤经 77.816°
平近点角 101.921°
近地点: 146.74km
远地点: 158.808km
周期: 87.543分钟
每日圈数: 16.449108
详细信息
固有亮度:
5
最大亮度:
2.5
卫星平台:
Starlink v1.5
覆盖范围:
全球
运营商:
太空探索技术公司
运营商所在国:
美国
制造商(研发单位):
太空探索技术公司
制造商所在国:
美国
使用方式:
暂无
卫星简介
星链(Starlink)计划是由太空探索技术公司(SpaceX)提出的一个巨型低轨卫星互联网星座项目,计划在2019年至2024年间在太空搭建由约1.2万颗卫星组成的“星链”网络,其中1584颗将部署在地球上空550千米处的近地轨道,并从2020年开始工作。该卫星仍在工作。
与全量物体交会距离演化趋势
与全量物体交会风险概率演化趋势